sat.trackr.live / text

‹ back to catalog

STARLINK-5792

NORAD 56035 · 2023-042BB

PAYLOAD ACTIVE UNKNOWN

§ Identity

Operator
Country
US
Launch date
2023-03-24
Launch site
AFETR
Launch vehicle
Mass (kg)
RCS (m²)

Purposes: comms

External: N2YO · Heavens-Above · Gunter

§ Orbital elements

Epoch: 2026-09-20T09:34:44.636736Z

Period
94.27 min
Inclination
43.0053°
Eccentricity
0.0001492
Mean motion
15.27574389 rev/d
Perigee alt
482.0 km
Apogee alt
484.1 km
Semi-major
6,861.2 km
B*
-5.9049e-6
RAAN
25.6156°
Arg perigee
285.3328°
Mean anomaly
74.7359°
Rev number
19,281

§ Raw data

STARLINK-57921 56035U 23042BB  26263.39912774 -.00000425  00000+0 -59049-5 0  99952 56035  43.0053  25.6156 0001492 285.3328  74.7359 15.27574389192815

JSON: /api/v1/satellites/56035 · /tle

For live sub-satellite position, see the globe view (requires WebGL).

§ Visibility from observer

Set your observer location to see the next 7 days of passes ≥ 10°. The values pass through the URL so the page stays shareable.

No JS? Fill the form by hand. The geolocation button needs JavaScript.